Location: Rumah Dana
(3.1167°N, 113.0167°E)
Time: 12:25:01
(UTC+00:00)

SJ-6B - Pass Details

Date: 03 August 2024
Orbit: 484 x 543 km, 97.4° (Epoch: 07 September)

Event Time Altitude Azimuth Distance (km) Brightness Sun altitude
Exits shadow 12:29:57 45° 256° (WSW) 741 3.7 -26.5°
Maximum altitude 12:30:02 45° 259° (W) 740 3.7 -26.5°
Drops below altitude 10° 12:33:48 10° 333° (NNW) 1,811 6.0 -27.3°
Sets 12:35:59 0° 339° (NNW) 2,706 6.9 -27.9°
